[Iaude] MPEC L20: 2024 LA [a=2.47,e=0.69,i=9.7,H=25.7]

mpec at cfa.harvard.edu mpec at cfa.harvard.edu
Sun Jun 2 01:58:22 EDT 2024


M.P.E.C. 2024-L20                                  Issued 2024 June 2, 05:56 UT

     The Minor Planet Electronic Circulars contain information on unusual
         minor planets, routine data on comets and natural satellites,
         and occasional editorial announcements.  They are published
    on behalf of Division F of the International Astronomical Union by the
          Minor Planet Center, Smithsonian Astrophysical Observatory,
                          Cambridge, MA 02138, U.S.A.
			  
             Prepared using the Tamkin Foundation Computer Network

                              MPC at CFA.HARVARD.EDU
            URL https://www.minorplanetcenter.net/    ISSN 1523-6714

                                    2024 LA                                     


Observations:
     K24L00A 1C2024 05 31.44296 16 54 32.68 -10 16 09.7          20.4 GVEL020G96
     K24L00A 1C2024 05 31.44811 16 54 33.52 -10 16 22.9          20.7 GVEL020G96
     K24L00A 1C2024 05 31.45328 16 54 34.45 -10 16 37.7          21.5 GVEL020G96
     K24L00A 1C2024 05 31.45843 16 54 35.36 -10 16 51.0          20.9 GVEL020G96
     K24L00A* C2024 06 01.43462616 58 26.834-11 08 53.49         20.69wXEL020F51
     K24L00A  C2024 06 01.44601516 58 29.290-11 09 35.57         20.36wXEL020F51
     K24L00A  C2024 06 01.45756416 58 31.794-11 10 18.24         20.81wXEL020F51
     K24L00A  C2024 06 01.46876516 58 34.233-11 10 59.78         20.94wXEL020F51
     K24L00A  C2024 06 01.52536016 58 46.832-11 14 30.15         20.64GVEL020F51
     K24L00A KB2024 06 02.04759217 01 24.49 -11 51 08.0          20.3 GXEL020I93
     K24L00A KB2024 06 02.05567017 01 26.77 -11 51 44.4                XEL020I93
     K24L00A KB2024 06 02.06373717 01 29.07 -11 52 20.9          20.4 GXEL020I93

Observer details:
F51 Pan-STARRS 1, Haleakala.  Observers J. Herman, T. Lowe, P. Minguez, A.
    Schultz, I. Smith.  Measurers K. Chambers, T. de Boer, J. Fairlamb, H.
    Gao, M. Huber, C.-C. Lin, E. Magnier, Y. Ramanjooloo, R. Wainscoat, R.
    Weryk.  1.8-m Ritchey-Chretien + CCD.
G96 Mt. Lemmon Survey.  Observer T. Beuden.  Measurers B. Gray, D. Rankin, F.
    C. Shelly.  1.5-m reflector + 10K CCD.
I93 St Pardon de Conques.  Observer F. Losse.  0.40-m f/3.7 reflector + CMO.

Orbital elements:
2024 LA                                                  Earth MOID = 0.0076 AU
Epoch 2024 Mar. 31.0 TT = JDT 2460400.5                 MPC                     
M 331.55209              (2000.0)            P               Q                  
n   0.25444434     Peri.  248.94892     +0.80203209     +0.57451495             
a   2.4664606      Node    75.63595     -0.46604657     +0.77298529             
e   0.6887865      Incl.    9.70654     -0.37355738     +0.26912139             
P   3.87           H   25.70          G   0.15           U   9                  
Residuals in seconds of arc
240531 G96  0.3+  0.3-    240601 F51  0.1+  0.1-    240601 F51  0.0   0.0
240531 G96  0.4-  0.4+    240601 F51  0.0   0.1-    240602 I93  0.1+  0.6+
240531 G96  0.0   0.4-    240601 F51  0.0   0.1+    240602 I93  0.1+  0.3+
240531 G96  0.1+  0.3+    240601 F51  0.0   0.1+    240602 I93  0.3+  0.2-

Ephemeris:
2024 LA                  a,e,i = 2.47, 0.69, 10                  q = 0.7676
Date    TT    R. A. (2000) Decl.     Delta      r    Elong.  Phase     V
2024 05 03    16 30 04.9 -07 03 30   0.4127  1.3860   152.0    20.0    25.5
...
2024 05 18    16 37 39.2 -06 57 46   0.2287  1.2301   161.1    15.4    23.8
...
2024 05 26    16 43 54.8 -07 54 07   0.1390  1.1476   164.7    13.5    22.5
...
2024 06 01    16 56 37.6 -10 42 45   0.07448 1.0869   167.7    11.5    20.9
2024 06 02    17 01 10.4 -11 45 39   0.06397 1.0769   168.5    10.9    20.6
2024 06 03    17 07 31.9 -13 13 16   0.05355 1.0670   169.4    10.1    20.1
...
2024 06 09    02 07 11.1 -27 43 50   0.01648 1.0088    67.0   112.1    21.1
...
2024 06 17    04 10 33.7 -00 41 05   0.09675 0.9361    32.8   144.0    27.9
...
2024 07 02    04 29 27.9 +03 59 01   0.2625  0.8252    37.8   130.9    28.2

A. U. Tomatic                (C) Copyright 2024 MPC           M.P.E.C. 2024-L20





More information about the Iaude mailing list